sat.trackr.live / text

‹ back to catalog

STARLINK-4311

NORAD 53062 · 2022-077V

PAYLOAD ACTIVE UNKNOWN

§ Identity

Operator
Country
US
Launch date
2022-07-11
Launch site
AFWTR
Launch vehicle
Mass (kg)
RCS (m²)

Purposes: comms

External: N2YO · Heavens-Above · Gunter

§ Orbital elements

Epoch: 2026-05-25T01:35:13.792704Z

Period
95.64 min
Inclination
97.4478°
Eccentricity
0.0001200
Mean motion
15.05659040 rev/d
Perigee alt
548.7 km
Apogee alt
550.3 km
Semi-major
6,927.6 km
B*
-1.3611e-4
RAAN
325.0664°
Arg perigee
103.1130°
Mean anomaly
257.0231°
Rev number
21,240

§ Raw data

STARLINK-43111 53062U 22077V   26145.06613186 -.00002022  00000+0 -13611-3 0  99952 53062  97.4478 325.0664 0001200 103.1130 257.0231 15.05659040212409

JSON: /api/v1/satellites/53062 · /tle

For live sub-satellite position, see the globe view (requires WebGL).

§ Visibility from observer

Set your observer location to see the next 7 days of passes ≥ 10°. The values pass through the URL so the page stays shareable.

No JS? Fill the form by hand. The geolocation button needs JavaScript.